Regional Weather Roundup
Issued by NWS

Home | Current Version | Previous Version | Text Only | Print | Product List | Glossary On
Versions: 1 2 3 4 5 6 7 8 9 10 11 12 13 14 15 16 17 18 19 20 21 22 23 24 25 26 27 28 29 30 31 32 33 34 35 36 37 38 39 40 41 42 43 44 45 46 47 48 49 50
000
ASUS42 KFFC 191703
RWRGA
WEATHER ROUNDUP FOR GEORGIA
NATIONAL WEATHER SERVICE PEACHTREE CITY GA
1200 PM EST FRI DEC 19 2014

NOTE: "FAIR" INDICATES FEW OR NO CLOUDS BELOW 12,000 FEET WITH NO
SIGNIFICANT WEATHER AND/OR OBSTRUCTIONS TO VISIBILITY.

* = USE WITH CAUTION. THE STATIONS MARKED WITH AN ASTERISK MAY NOT
REPORT WEATHER SUCH AS PRECIPITATION, FOG, OR THUNDER AND ARE NOT
QUALITY CONTROLLED BY NWS.

THE REMARK "TC" DENOTES TEMPERATURE READING IN DEGREES CELSIUS.

GAZ001>058-191800-
NORTH GEORGIA

CITY           SKY/WX    TMP DP  RH WIND       PRES   REMARKS
ATLANTA        PTSUNNY   51  34  52 NW6       30.15F
ATHENS         SUNNY     55  33  43 E9        30.14F
CHAMBLEE       PTSUNNY   51  34  52 CALM      30.15S
PEACHTREE CITY PTSUNNY   51  34  52 W6        30.17F
ROME           CLOUDY    47  32  56 NW9       30.20S
WEST ATLANTA   PTSUNNY   50  33  52 W5        30.16F
GAINESVILLE    MOSUNNY   51  33  50 VRB6      30.15F
CARTERSVILLE   CLOUDY    45  30  55 VRB5      30.20S


CITY           SKY/WX    TMP DP  RH WIND       PRES   REMARKS
DALTON*        CLOUDY    43  32  65 N8        30.21S
LAWRENCEVILLE* SUNNY     54  30  40 E7        30.14
MARIETTA       PTSUNNY   49  34  55 N7        30.16S
KENNESAW*      PTSUNNY   45  30  57 NW7       30.19S
$$

GAZ059>098-102>109-191800-
CENTRAL GEORGIA

CITY           SKY/WX    TMP DP  RH WIND       PRES   REMARKS
AUGUSTA-BUSH   SUNNY     57  36  45 CALM      30.14F
AUGUSTA-DANIEL SUNNY     58  36  43 N6        30.14F
COLUMBUS       PTSUNNY   52  35  52 CALM      30.20R
MACON          SUNNY     54  36  50 CALM      30.15F
ROBINS AFB     SUNNY     55  36  49 VRB1      30.15F


CITY           SKY/WX    TMP DP  RH WIND       PRES   REMARKS
LAGRANGE*      PTSUNNY   53  38  58 N3        30.20R
SYLVANIA*      CLOUDY    54  43  65 CALM      30.15F
MILLEDGEVILLE* SUNNY     54  41  62 CALM      30.15F
$$

GAZ099>101-110>166-191800-
SOUTH GEORGIA

CITY           SKY/WX    TMP DP  RH WIND       PRES   REMARKS
SAVANNAH       CLOUDY    59  40  49 N3        30.14F
VALDOSTA       CLOUDY    61  39  44 E7        30.15F
ALMA           CLOUDY    58  39  49 VRB5      30.16S
ST SIMONS      CLOUDY    60  40  47 CALM      30.14F
FT STEWART     CLOUDY    58  40  52 CALM      30.13F
ALBANY         PTSUNNY   56  39  53 NE5       30.18F
HUNTER AFB     CLOUDY    60  42  51 NW3       30.12F
MOODY AFB      CLOUDY    60  41  50 NE6       30.15F
BRUNSWICK      CLOUDY    61  37  41 CALM      30.15F


CITY           SKY/WX    TMP DP  RH WIND       PRES   REMARKS
BAINBRIDGE*    PTSUNNY   61  43  51 E8        30.17F
MOULTRIE*      PTSUNNY   59  43  55 NE5       30.16F
VIDALIA*       CLOUDY    54  41  62 N3        30.16F
WAYCROSS*      CLOUDY    60  44  54 CALM      30.15F
DOUGLAS*       CLOUDY    59  37  44 N3        30.18S
$$


USA.gov is the U.S. government's official web portal to all federal, state and local government web resources and services.